Date_Time,Julian_Date,Latitude,Longitude,Instrument_Depth,U,V,Speed,Direction
(yyyy-mm-dd hh:mn:ss UTC),(JD),(+ deg. North),(+ deg. East),(m),(cm/s),(cm/s),(cm/s),(deg True)
1985-06-11 21:00:00 UTC,2446228.375000,26.0117,-95.1217,0300,-11.56,2.63,11.8554,282.8171
1985-06-11 21:30:00 UTC,2446228.395833,26.0117,-95.1217,0300,-11.26,5.01,12.3243,293.9861
1985-06-11 22:00:00 UTC,2446228.416667,26.0117,-95.1217,0300,-11.74,6.75,13.5422,299.8971
1985-06-11 22:30:00 UTC,2446228.437500,26.0117,-95.1217,0300,-11.36,5.47,12.6083,295.7115
1985-06-11 23:00:00 UTC,2446228.458333,26.0117,-95.1217,0300,-8.24,9.17,12.3283,318.0577
1985-06-11 23:30:00 UTC,2446228.479167,26.0117,-95.1217,0300,-9.56,7.93,12.4209,309.6756
1985-06-12 00:00:00 UTC,2446228.500000,26.0117,-95.1217,0300,-6.83,10.15,12.2340,326.0631
1985-06-12 00:30:00 UTC,2446228.520833,26.0117,-95.1217,0300,-5.65,10.64,12.0471,332.0310
1985-06-12 01:00:00 UTC,2446228.541667,26.0117,-95.1217,0300,-5.67,10.84,12.2333,332.3876
1985-06-12 01:30:00 UTC,2446228.562500,26.0117,-95.1217,0300,-5.02,12.17,13.1647,337.5844
1985-06-12 02:00:00 UTC,2446228.583333,26.0117,-95.1217,0300,-3.88,13.75,14.2869,344.2419
1985-06-12 02:30:00 UTC,2446228.604167,26.0117,-95.1217,0300,-2.00,14.71,14.8453,352.2574
1985-06-12 03:00:00 UTC,2446228.625000,26.0117,-95.1217,0300,-0.97,13.04,13.0760,355.7458
1985-06-12 03:30:00 UTC,2446228.645833,26.0117,-95.1217,0300,0.76,14.08,14.1005,3.0897
1985-06-12 04:00:00 UTC,2446228.666667,26.0117,-95.1217,0300,3.24,14.01,14.3798,13.0215
1985-06-12 04:30:00 UTC,2446228.687500,26.0117,-95.1217,0300,3.14,13.56,13.9188,13.0378
1985-06-12 05:00:00 UTC,2446228.708333,26.0117,-95.1217,0300,5.59,12.64,13.8209,23.8573
1985-06-12 05:30:00 UTC,2446228.729167,26.0117,-95.1217,0300,5.93,13.20,14.4708,24.1916
1985-06-12 06:00:00 UTC,2446228.750000,26.0117,-95.1217,0300,5.89,12.30,13.6375,25.5880
1985-06-12 06:30:00 UTC,2446228.770833,26.0117,-95.1217,0300,6.77,11.18,13.0700,31.1968
1985-06-12 07:00:00 UTC,2446228.791667,26.0117,-95.1217,0300,11.54,6.34,13.1669,61.2159
1985-06-12 07:30:00 UTC,2446228.812500,26.0117,-95.1217,0300,10.89,6.16,12.5115,60.5050
1985-06-12 08:00:00 UTC,2446228.833333,26.0117,-95.1217,0300,9.62,6.94,11.8620,54.1928
1985-06-12 08:30:00 UTC,2446228.854167,26.0117,-95.1217,0300,11.74,6.36,13.3520,61.5539
1985-06-12 09:00:00 UTC,2446228.875000,26.0117,-95.1217,0300,12.14,4.61,12.9858,69.2064
1985-06-12 09:30:00 UTC,2446228.895833,26.0117,-95.1217,0300,11.61,1.24,11.6760,83.9037
1985-06-12 10:00:00 UTC,2446228.916667,26.0117,-95.1217,0300,10.64,0.42,10.6483,87.7395
1985-06-12 10:30:00 UTC,2446228.937500,26.0117,-95.1217,0300,11.38,-2.14,11.5795,100.6500
1985-06-12 11:00:00 UTC,2446228.958333,26.0117,-95.1217,0300,11.47,-0.59,11.4852,92.9446
1985-06-12 11:30:00 UTC,2446228.979167,26.0117,-95.1217,0300,11.01,-1.52,11.1144,97.8604
1985-06-12 12:00:00 UTC,2446229.000000,26.0117,-95.1217,0300,10.07,-2.47,10.3685,103.7816
1985-06-12 12:30:00 UTC,2446229.020833,26.0117,-95.1217,0300,9.39,-3.43,9.9968,110.0663
1985-06-12 13:00:00 UTC,2446229.041667,26.0117,-95.1217,0300,9.17,-5.41,10.6469,120.5392
1985-06-12 13:30:00 UTC,2446229.062500,26.0117,-95.1217,0300,8.56,-6.17,10.5519,125.7838
1985-06-12 14:00:00 UTC,2446229.083333,26.0117,-95.1217,0300,8.31,-5.39,9.9050,122.9681
1985-06-12 14:30:00 UTC,2446229.104167,26.0117,-95.1217,0300,7.37,-7.42,10.4582,135.1937
1985-06-12 15:00:00 UTC,2446229.125000,26.0117,-95.1217,0300,6.00,-6.91,9.1514,139.0320
1985-06-12 15:30:00 UTC,2446229.145833,26.0117,-95.1217,0300,3.23,-8.86,9.4304,159.9702
1985-06-12 16:00:00 UTC,2446229.166667,26.0117,-95.1217,0300,4.27,-9.34,10.2698,155.4314
1985-06-12 16:30:00 UTC,2446229.187500,26.0117,-95.1217,0300,5.59,-8.17,9.8993,145.6197
1985-06-12 17:00:00 UTC,2446229.208333,26.0117,-95.1217,0300,3.20,-9.67,10.1857,161.6896
1985-06-12 17:30:00 UTC,2446229.229167,26.0117,-95.1217,0300,2.93,-9.65,10.0850,163.1103
1985-06-12 18:00:00 UTC,2446229.250000,26.0117,-95.1217,0300,0.27,-10.08,10.0836,178.4657
1985-06-12 18:30:00 UTC,2446229.270833,26.0117,-95.1217,0300,0.60,-10.44,10.4572,176.7108
1985-06-12 19:00:00 UTC,2446229.291667,26.0117,-95.1217,0300,-2.46,-10.26,10.5508,193.4831
1985-06-12 19:30:00 UTC,2446229.312500,26.0117,-95.1217,0300,-3.17,-10.16,10.6430,197.3283
1985-06-12 20:00:00 UTC,2446229.333333,26.0117,-95.1217,0300,-3.95,-9.69,10.4642,202.1776
1985-06-12 20:30:00 UTC,2446229.354167,26.0117,-95.1217,0300,-7.22,-8.20,10.9256,221.3635
1985-06-12 21:00:00 UTC,2446229.375000,26.0117,-95.1217,0300,-7.47,-7.97,10.9235,223.1452
1985-06-12 21:30:00 UTC,2446229.395833,26.0117,-95.1217,0300,-7.23,-7.17,10.1824,225.2387
1985-06-12 22:00:00 UTC,2446229.416667,26.0117,-95.1217,0300,-9.57,-4.23,10.4632,246.1543
1985-06-12 22:30:00 UTC,2446229.437500,26.0117,-95.1217,0300,-10.17,-3.99,10.9247,248.5784
1985-06-12 23:00:00 UTC,2446229.458333,26.0117,-95.1217,0300,-9.47,-5.26,10.8328,240.9505
1985-06-12 23:30:00 UTC,2446229.479167,26.0117,-95.1217,0300,-11.03,-1.37,11.1148,262.9197
1985-06-13 00:00:00 UTC,2446229.500000,26.0117,-95.1217,0300,-10.64,2.49,10.9275,283.1715
1985-06-13 00:30:00 UTC,2446229.520833,26.0117,-95.1217,0300,-10.97,3.06,11.3888,285.5861
1985-06-13 01:00:00 UTC,2446229.541667,26.0117,-95.1217,0300,-9.47,7.29,11.9509,307.5891
1985-06-13 01:30:00 UTC,2446229.562500,26.0117,-95.1217,0300,-8.55,8.22,11.8605,313.8727
1985-06-13 02:00:00 UTC,2446229.583333,26.0117,-95.1217,0300,-6.76,10.19,12.2284,326.4399
1985-06-13 02:30:00 UTC,2446229.604167,26.0117,-95.1217,0300,-5.54,10.59,11.9516,332.3844
1985-06-13 03:00:00 UTC,2446229.625000,26.0117,-95.1217,0300,-4.18,11.30,12.0483,339.7000
1985-06-13 03:30:00 UTC,2446229.645833,26.0117,-95.1217,0300,-3.08,11.45,11.8570,344.9441
1985-06-13 04:00:00 UTC,2446229.666667,26.0117,-95.1217,0300,-2.07,11.96,12.1378,350.1807
1985-06-13 04:30:00 UTC,2446229.687500,26.0117,-95.1217,0300,-0.65,12.96,12.9763,357.1288
1985-06-13 05:00:00 UTC,2446229.708333,26.0117,-95.1217,0300,1.50,12.70,12.7883,6.7360
1985-06-13 05:30:00 UTC,2446229.729167,26.0117,-95.1217,0300,1.61,12.32,12.4248,7.4453
1985-06-13 06:00:00 UTC,2446229.750000,26.0117,-95.1217,0300,2.84,12.28,12.6041,13.0219
1985-06-13 06:30:00 UTC,2446229.770833,26.0117,-95.1217,0300,4.56,11.85,12.6971,21.0472
1985-06-13 07:00:00 UTC,2446229.791667,26.0117,-95.1217,0300,5.83,11.28,12.6975,27.3319
1985-06-13 07:30:00 UTC,2446229.812500,26.0117,-95.1217,0300,6.81,10.38,12.4145,33.2677
1985-06-13 08:00:00 UTC,2446229.833333,26.0117,-95.1217,0300,7.04,9.08,11.4895,37.7875
1985-06-13 08:30:00 UTC,2446229.854167,26.0117,-95.1217,0300,7.25,10.08,12.4165,35.7254
1985-06-13 09:00:00 UTC,2446229.875000,26.0117,-95.1217,0300,8.79,9.30,12.7966,43.3851
1985-06-13 09:30:00 UTC,2446229.895833,26.0117,-95.1217,0300,9.95,8.04,12.7923,51.0604
1985-06-13 10:00:00 UTC,2446229.916667,26.0117,-95.1217,0300,9.76,7.98,12.6071,50.7298
1985-06-13 10:30:00 UTC,2446229.937500,26.0117,-95.1217,0300,9.88,7.21,12.2310,53.8796
1985-06-13 11:00:00 UTC,2446229.958333,26.0117,-95.1217,0300,9.99,6.40,11.8642,57.3547
1985-06-13 11:30:00 UTC,2446229.979167,26.0117,-95.1217,0300,10.23,4.10,11.0210,68.1600
1985-06-13 12:00:00 UTC,2446230.000000,26.0117,-95.1217,0300,10.29,4.19,11.1104,67.8443
1985-06-13 12:30:00 UTC,2446230.020833,26.0117,-95.1217,0300,10.80,0.89,10.8366,85.2890
1985-06-13 13:00:00 UTC,2446230.041667,26.0117,-95.1217,0300,9.83,-1.17,9.8994,96.7876
1985-06-13 13:30:00 UTC,2446230.062500,26.0117,-95.1217,0300,9.97,-2.06,10.1806,101.6742
1985-06-13 14:00:00 UTC,2446230.083333,26.0117,-95.1217,0300,10.11,-1.83,10.2743,100.2599
1985-06-13 14:30:00 UTC,2446230.104167,26.0117,-95.1217,0300,8.87,-2.93,9.3414,108.2798
1985-06-13 15:00:00 UTC,2446230.125000,26.0117,-95.1217,0300,9.08,-2.17,9.3357,103.4408
1985-06-13 15:30:00 UTC,2446230.145833,26.0117,-95.1217,0300,8.05,-4.36,9.1549,118.4406
1985-06-13 16:00:00 UTC,2446230.166667,26.0117,-95.1217,0300,7.00,-6.87,9.8080,134.4630
1985-06-13 16:30:00 UTC,2446230.187500,26.0117,-95.1217,0300,8.31,-5.39,9.9050,122.9681
1985-06-13 17:00:00 UTC,2446230.208333,26.0117,-95.1217,0300,8.00,-6.30,10.1828,128.2204
1985-06-13 17:30:00 UTC,2446230.229167,26.0117,-95.1217,0300,5.18,-8.10,9.6147,147.4008
1985-06-13 18:00:00 UTC,2446230.250000,26.0117,-95.1217,0300,3.11,-9.40,9.9011,161.6931
1985-06-13 18:30:00 UTC,2446230.270833,26.0117,-95.1217,0300,3.11,-9.60,10.0912,162.0498
1985-06-13 19:00:00 UTC,2446230.291667,26.0117,-95.1217,0300,2.97,-10.22,10.6428,163.7958
1985-06-13 19:30:00 UTC,2446230.312500,26.0117,-95.1217,0300,2.38,-10.28,10.5519,166.9647
1985-06-13 20:00:00 UTC,2446230.333333,26.0117,-95.1217,0300,2.00,-10.65,10.8362,169.3641
1985-06-13 20:30:00 UTC,2446230.354167,26.0117,-95.1217,0300,0.16,-11.11,11.1112,179.1749
1985-06-13 21:00:00 UTC,2446230.375000,26.0117,-95.1217,0300,-0.24,-10.92,10.9226,181.2590
1985-06-13 21:30:00 UTC,2446230.395833,26.0117,-95.1217,0300,-1.74,-11.54,11.6704,188.5745
1985-06-13 22:00:00 UTC,2446230.416667,26.0117,-95.1217,0300,-4.94,-9.96,11.1178,206.3807
1985-06-13 22:30:00 UTC,2446230.437500,26.0117,-95.1217,0300,-6.99,-8.87,11.2932,218.2399
1985-06-13 23:00:00 UTC,2446230.458333,26.0117,-95.1217,0300,-6.69,-10.58,12.5177,212.3062
1985-06-13 23:30:00 UTC,2446230.479167,26.0117,-95.1217,0300,-9.05,-9.43,13.0701,223.8220
1985-06-14 00:00:00 UTC,2446230.500000,26.0117,-95.1217,0300,-8.47,-7.62,11.3932,228.0240
1985-06-14 00:30:00 UTC,2446230.520833,26.0117,-95.1217,0300,-9.99,-4.42,10.9241,246.1334
1985-06-14 01:00:00 UTC,2446230.541667,26.0117,-95.1217,0300,-9.94,-4.76,11.0209,244.4115
1985-06-14 01:30:00 UTC,2446230.562500,26.0117,-95.1217,0300,-11.21,-2.02,11.3905,259.7852
1985-06-14 02:00:00 UTC,2446230.583333,26.0117,-95.1217,0300,-9.70,1.96,9.8960,281.4235
1985-06-14 02:30:00 UTC,2446230.604167,26.0117,-95.1217,0300,-10.35,4.30,11.2077,292.5609
1985-06-14 03:00:00 UTC,2446230.625000,26.0117,-95.1217,0300,-8.91,6.95,11.3000,307.9550
1985-06-14 03:30:00 UTC,2446230.645833,26.0117,-95.1217,0300,-10.48,7.66,12.9810,306.1637
1985-06-14 04:00:00 UTC,2446230.666667,26.0117,-95.1217,0300,-7.95,9.18,12.1439,319.1070
1985-06-14 04:30:00 UTC,2446230.687500,26.0117,-95.1217,0300,-9.24,8.16,12.3273,311.4483
1985-06-14 05:00:00 UTC,2446230.708333,26.0117,-95.1217,0300,-6.16,10.35,12.0444,329.2402
1985-06-14 05:30:00 UTC,2446230.729167,26.0117,-95.1217,0300,-5.61,11.39,12.6966,333.7780
1985-06-14 06:00:00 UTC,2446230.750000,26.0117,-95.1217,0300,-2.92,11.69,12.0492,345.9753
1985-06-14 06:30:00 UTC,2446230.770833,26.0117,-95.1217,0300,-2.72,12.50,12.7925,347.7238
1985-06-14 07:00:00 UTC,2446230.791667,26.0117,-95.1217,0300,-0.79,12.68,12.7046,356.4349
1985-06-14 07:30:00 UTC,2446230.812500,26.0117,-95.1217,0300,3.21,13.15,13.5361,13.7180
1985-06-14 08:00:00 UTC,2446230.833333,26.0117,-95.1217,0300,5.43,11.89,13.0712,24.5455
1985-06-14 08:30:00 UTC,2446230.854167,26.0117,-95.1217,0300,7.17,11.38,13.4504,32.2131
1985-06-14 09:00:00 UTC,2446230.875000,26.0117,-95.1217,0300,8.33,9.96,12.9842,39.9073
1985-06-14 09:30:00 UTC,2446230.895833,26.0117,-95.1217,0300,10.21,7.55,12.6983,53.5181
1985-06-14 10:00:00 UTC,2446230.916667,26.0117,-95.1217,0300,10.53,6.04,12.1393,60.1614
1985-06-14 10:30:00 UTC,2446230.937500,26.0117,-95.1217,0300,11.52,2.39,11.7653,78.2794
1985-06-14 11:00:00 UTC,2446230.958333,26.0117,-95.1217,0300,10.86,-2.38,11.1177,102.3611
1985-06-14 11:30:00 UTC,2446230.979167,26.0117,-95.1217,0300,10.26,-0.53,10.2737,92.9571
1985-06-14 12:00:00 UTC,2446231.000000,26.0117,-95.1217,0300,10.35,-0.66,10.3710,93.6487
1985-06-14 12:30:00 UTC,2446231.020833,26.0117,-95.1217,0300,9.71,-4.59,10.7402,115.3005
1985-06-14 13:00:00 UTC,2446231.041667,26.0117,-95.1217,0300,9.63,-2.30,9.9009,103.4327
1985-06-14 13:30:00 UTC,2446231.062500,26.0117,-95.1217,0300,9.13,4.05,9.9880,66.0783
1985-06-14 14:00:00 UTC,2446231.083333,26.0117,-95.1217,0300,9.03,4.27,9.9887,64.6920
1985-06-14 14:30:00 UTC,2446231.104167,26.0117,-95.1217,0300,9.62,-0.20,9.6221,91.1910
1985-06-14 15:00:00 UTC,2446231.125000,26.0117,-95.1217,0300,11.12,-1.39,11.2065,97.1250
1985-06-14 15:30:00 UTC,2446231.145833,26.0117,-95.1217,0300,11.80,1.19,11.8599,84.2413
1985-06-14 16:00:00 UTC,2446231.166667,26.0117,-95.1217,0300,12.23,-0.11,12.2305,90.5153
1985-06-14 16:30:00 UTC,2446231.187500,26.0117,-95.1217,0300,11.59,-3.29,12.0479,105.8474
1985-06-14 17:00:00 UTC,2446231.208333,26.0117,-95.1217,0300,11.22,-4.64,12.1416,112.4674
1985-06-14 17:30:00 UTC,2446231.229167,26.0117,-95.1217,0300,10.68,-5.37,11.9540,116.6936
1985-06-14 18:00:00 UTC,2446231.250000,26.0117,-95.1217,0300,10.38,-6.64,12.3221,122.6067
1985-06-14 18:30:00 UTC,2446231.270833,26.0117,-95.1217,0300,9.18,-7.50,11.8542,129.2486
1985-06-14 19:00:00 UTC,2446231.291667,26.0117,-95.1217,0300,9.09,-7.61,11.8550,129.9355
1985-06-14 19:30:00 UTC,2446231.312500,26.0117,-95.1217,0300,10.32,-8.02,13.0699,127.8519
1985-06-14 20:00:00 UTC,2446231.333333,26.0117,-95.1217,0300,6.43,-11.06,12.7933,149.8274
1985-06-14 20:30:00 UTC,2446231.354167,26.0117,-95.1217,0300,6.63,-10.50,12.4180,147.7305
1985-06-14 21:00:00 UTC,2446231.375000,26.0117,-95.1217,0300,6.43,-11.71,13.3592,151.2287
1985-06-14 21:30:00 UTC,2446231.395833,26.0117,-95.1217,0300,5.48,-12.18,13.3560,155.7762
1985-06-14 22:00:00 UTC,2446231.416667,26.0117,-95.1217,0300,3.78,-11.93,12.5145,162.4193
1985-06-14 22:30:00 UTC,2446231.437500,26.0117,-95.1217,0300,1.95,-11.98,12.1377,170.7550
1985-06-14 23:00:00 UTC,2446231.458333,26.0117,-95.1217,0300,-2.25,-10.50,10.7384,192.0948
1985-06-14 23:30:00 UTC,2446231.479167,26.0117,-95.1217,0300,-2.54,-11.20,11.4844,192.7777
1985-06-15 00:00:00 UTC,2446231.500000,26.0117,-95.1217,0300,-4.01,-11.16,11.8586,199.7643
1985-06-15 00:30:00 UTC,2446231.520833,26.0117,-95.1217,0300,-4.10,-10.23,11.0210,201.8400
1985-06-15 01:00:00 UTC,2446231.541667,26.0117,-95.1217,0300,-4.61,-9.90,10.9207,204.9694
1985-06-15 01:30:00 UTC,2446231.562500,26.0117,-95.1217,0300,-5.95,-9.28,11.0237,212.6665
1985-06-15 02:00:00 UTC,2446231.583333,26.0117,-95.1217,0300,-7.51,-7.54,10.6420,224.8858
1985-06-15 02:30:00 UTC,2446231.604167,26.0117,-95.1217,0300,-7.38,-7.15,10.2755,225.9069
1985-06-15 03:00:00 UTC,2446231.625000,26.0117,-95.1217,0300,-8.91,-6.16,10.8321,235.3416
1985-06-15 03:30:00 UTC,2446231.645833,26.0117,-95.1217,0300,-9.21,-2.79,9.6233,253.1468
1985-06-15 04:00:00 UTC,2446231.666667,26.0117,-95.1217,0300,-8.68,-2.23,8.9619,255.5916
1985-06-15 04:30:00 UTC,2446231.687500,26.0117,-95.1217,0300,-8.88,-2.57,9.2444,253.8588
1985-06-15 05:00:00 UTC,2446231.708333,26.0117,-95.1217,0300,-9.15,0.15,9.1512,270.9392
1985-06-15 05:30:00 UTC,2446231.729167,26.0117,-95.1217,0300,-8.76,2.97,9.2498,288.7288
1985-06-15 06:00:00 UTC,2446231.750000,26.0117,-95.1217,0300,-6.08,6.21,8.6908,315.6060
1985-06-15 06:30:00 UTC,2446231.770833,26.0117,-95.1217,0300,-6.75,5.46,8.6818,308.9690
1985-06-15 07:00:00 UTC,2446231.791667,26.0117,-95.1217,0300,-5.75,5.74,8.1247,314.9501
1985-06-15 07:30:00 UTC,2446231.812500,26.0117,-95.1217,0300,-6.33,6.08,8.7770,313.8459
1985-06-15 08:00:00 UTC,2446231.833333,26.0117,-95.1217,0300,-6.48,5.79,8.6899,311.7814
1985-06-15 08:30:00 UTC,2446231.854167,26.0117,-95.1217,0300,-6.26,4.88,7.9374,307.9383
1985-06-15 09:00:00 UTC,2446231.875000,26.0117,-95.1217,0300,-6.38,5.04,8.1306,308.3076
1985-06-15 09:30:00 UTC,2446231.895833,26.0117,-95.1217,0300,-6.57,4.93,8.2140,306.8839
1985-06-15 10:00:00 UTC,2446231.916667,26.0117,-95.1217,0300,-8.04,1.72,8.2219,282.0753
1985-06-15 10:30:00 UTC,2446231.937500,26.0117,-95.1217,0300,-6.68,4.29,7.9389,302.7092
1985-06-15 11:00:00 UTC,2446231.958333,26.0117,-95.1217,0300,-0.36,8.31,8.3178,357.5194
1985-06-15 11:30:00 UTC,2446231.979167,26.0117,-95.1217,0300,-1.42,7.62,7.7512,349.4439
1985-06-15 12:00:00 UTC,2446232.000000,26.0117,-95.1217,0300,0.04,7.94,7.9401,0.2886
1985-06-15 12:30:00 UTC,2446232.020833,26.0117,-95.1217,0300,3.23,7.56,8.2211,23.1345
1985-06-15 13:00:00 UTC,2446232.041667,26.0117,-95.1217,0300,4.06,9.03,9.9007,24.2093
1985-06-15 13:30:00 UTC,2446232.062500,26.0117,-95.1217,0300,6.79,7.45,10.0800,42.3463
1985-06-15 14:00:00 UTC,2446232.083333,26.0117,-95.1217,0300,8.06,6.51,10.3607,51.0725
1985-06-15 14:30:00 UTC,2446232.104167,26.0117,-95.1217,0300,7.86,7.45,10.8297,46.5340
1985-06-15 15:00:00 UTC,2446232.125000,26.0117,-95.1217,0300,9.23,4.51,10.2729,63.9587
1985-06-15 15:30:00 UTC,2446232.145833,26.0117,-95.1217,0300,9.01,6.66,11.2043,53.5290
1985-06-15 16:00:00 UTC,2446232.166667,26.0117,-95.1217,0300,10.51,5.70,11.9562,61.5272
1985-06-15 16:30:00 UTC,2446232.187500,26.0117,-95.1217,0300,10.70,3.91,11.3920,69.9267
1985-06-15 17:00:00 UTC,2446232.208333,26.0117,-95.1217,0300,11.42,2.44,11.6778,77.9395
1985-06-15 17:30:00 UTC,2446232.229167,26.0117,-95.1217,0300,12.08,3.60,12.6050,73.4052
1985-06-15 18:00:00 UTC,2446232.250000,26.0117,-95.1217,0300,12.54,2.52,12.7907,78.6374
1985-06-15 18:30:00 UTC,2446232.270833,26.0117,-95.1217,0300,12.32,-0.33,12.3244,91.5343
1985-06-15 19:00:00 UTC,2446232.291667,26.0117,-95.1217,0300,12.16,-2.51,12.4163,101.6629
1985-06-15 19:30:00 UTC,2446232.312500,26.0117,-95.1217,0300,12.33,-1.47,12.4173,96.7988
1985-06-15 20:00:00 UTC,2446232.333333,26.0117,-95.1217,0300,11.82,-3.51,12.3301,106.5390
1985-06-15 20:30:00 UTC,2446232.354167,26.0117,-95.1217,0300,10.95,-5.01,12.0417,114.5857
1985-06-15 21:00:00 UTC,2446232.375000,26.0117,-95.1217,0300,10.54,-6.21,12.2334,120.5059
1985-06-15 21:30:00 UTC,2446232.395833,26.0117,-95.1217,0300,9.52,-8.27,12.6104,130.9808
1985-06-15 22:00:00 UTC,2446232.416667,26.0117,-95.1217,0300,9.09,-8.60,12.5135,133.4133
1985-06-15 22:30:00 UTC,2446232.437500,26.0117,-95.1217,0300,8.14,-9.26,12.3291,138.6829
1985-06-15 23:00:00 UTC,2446232.458333,26.0117,-95.1217,0300,6.12,-9.83,11.5794,148.0943
1985-06-15 23:30:00 UTC,2446232.479167,26.0117,-95.1217,0300,5.03,-10.01,11.2027,153.3206
1985-06-16 00:00:00 UTC,2446232.500000,26.0117,-95.1217,0300,5.31,-9.01,10.4583,149.4872
1985-06-16 00:30:00 UTC,2446232.520833,26.0117,-95.1217,0300,3.80,-10.04,10.7351,159.2690
1985-06-16 01:00:00 UTC,2446232.541667,26.0117,-95.1217,0300,2.38,-10.86,11.1177,167.6389
1985-06-16 01:30:00 UTC,2446232.562500,26.0117,-95.1217,0300,2.82,-10.65,11.0170,165.1691
1985-06-16 02:00:00 UTC,2446232.583333,26.0117,-95.1217,0300,-1.16,-10.21,10.2757,186.4818
1985-06-16 02:30:00 UTC,2446232.604167,26.0117,-95.1217,0300,-2.97,-9.74,10.1828,196.9579
1985-06-16 03:00:00 UTC,2446232.625000,26.0117,-95.1217,0300,-3.98,-9.27,10.0883,203.2359
1985-06-16 03:30:00 UTC,2446232.645833,26.0117,-95.1217,0300,-6.95,-6.65,9.6190,226.2637
1985-06-16 04:00:00 UTC,2446232.666667,26.0117,-95.1217,0300,-7.25,-4.26,8.4089,239.5621
1985-06-16 04:30:00 UTC,2446232.687500,26.0117,-95.1217,0300,-6.35,-5.65,8.4997,228.3385
1985-06-16 05:00:00 UTC,2446232.708333,26.0117,-95.1217,0300,-5.48,-7.22,9.0641,217.1986
1985-06-16 05:30:00 UTC,2446232.729167,26.0117,-95.1217,0300,-4.74,-7.39,8.7795,212.6764
1985-06-16 06:00:00 UTC,2446232.750000,26.0117,-95.1217,0300,-5.07,-7.51,9.0612,214.0233
1985-06-16 06:30:00 UTC,2446232.770833,26.0117,-95.1217,0300,-6.73,-4.72,8.2202,234.9566
1985-06-16 07:00:00 UTC,2446232.791667,26.0117,-95.1217,0300,-6.83,-3.47,7.6609,243.0670
1985-06-16 07:30:00 UTC,2446232.812500,26.0117,-95.1217,0300,-7.04,-4.93,8.5946,234.9971
1985-06-16 08:00:00 UTC,2446232.833333,26.0117,-95.1217,0300,-8.20,-5.38,9.8074,236.7312
1985-06-16 08:30:00 UTC,2446232.854167,26.0117,-95.1217,0300,-8.89,-5.16,10.2790,239.8680
1985-06-16 09:00:00 UTC,2446232.875000,26.0117,-95.1217,0300,-9.86,-5.72,11.3990,239.8811
1985-06-16 09:30:00 UTC,2446232.895833,26.0117,-95.1217,0300,-10.93,-3.53,11.4859,252.1014
1985-06-16 10:00:00 UTC,2446232.916667,26.0117,-95.1217,0300,-10.37,-3.14,10.8350,253.1539
1985-06-16 10:30:00 UTC,2446232.937500,26.0117,-95.1217,0300,-10.16,-1.52,10.2731,261.4913
1985-06-16 11:00:00 UTC,2446232.958333,26.0117,-95.1217,0300,-11.08,-2.21,11.2983,258.7199
1985-06-16 11:30:00 UTC,2446232.979167,26.0117,-95.1217,0300,-11.16,-1.04,11.2084,264.6760
1985-06-16 12:00:00 UTC,2446233.000000,26.0117,-95.1217,0300,-10.32,3.86,11.0183,290.5074
1985-06-16 12:30:00 UTC,2446233.020833,26.0117,-95.1217,0300,-9.80,5.25,11.1177,298.1786
1985-06-16 13:00:00 UTC,2446233.041667,26.0117,-95.1217,0300,-6.26,8.73,10.7425,324.3569
1985-06-16 13:30:00 UTC,2446233.062500,26.0117,-95.1217,0300,-5.21,9.81,11.1077,332.0276
1985-06-16 14:00:00 UTC,2446233.083333,26.0117,-95.1217,0300,-3.76,10.76,11.3980,340.7384
1985-06-16 14:30:00 UTC,2446233.104167,26.0117,-95.1217,0300,-0.88,11.83,11.8627,355.7458
1985-06-16 15:00:00 UTC,2446233.125000,26.0117,-95.1217,0300,1.88,12.56,12.6999,8.5129
1985-06-16 15:30:00 UTC,2446233.145833,26.0117,-95.1217,0300,3.46,11.93,12.4216,16.1735
1985-06-16 16:00:00 UTC,2446233.166667,26.0117,-95.1217,0300,5.03,10.33,11.4896,25.9629
1985-06-16 16:30:00 UTC,2446233.187500,26.0117,-95.1217,0300,7.39,9.52,12.0517,37.8208
1985-06-16 17:00:00 UTC,2446233.208333,26.0117,-95.1217,0300,8.69,8.34,12.0446,46.1774
1985-06-16 17:30:00 UTC,2446233.229167,26.0117,-95.1217,0300,9.63,6.42,11.5738,56.3099
1985-06-16 18:00:00 UTC,2446233.250000,26.0117,-95.1217,0300,10.47,4.95,11.5812,64.6962
1985-06-16 18:30:00 UTC,2446233.270833,26.0117,-95.1217,0300,11.77,2.07,11.9506,80.0253
1985-06-16 19:00:00 UTC,2446233.291667,26.0117,-95.1217,0300,12.51,-0.34,12.5146,91.5568
1985-06-16 19:30:00 UTC,2446233.312500,26.0117,-95.1217,0300,11.05,-1.87,11.2071,99.6052
1985-06-16 20:00:00 UTC,2446233.333333,26.0117,-95.1217,0300,10.64,-1.46,10.7397,97.8132
1985-06-16 20:30:00 UTC,2446233.354167,26.0117,-95.1217,0300,11.57,-2.61,11.8607,102.7122
1985-06-16 21:00:00 UTC,2446233.375000,26.0117,-95.1217,0300,10.10,-3.07,10.5563,106.9072
1985-06-16 21:30:00 UTC,2446233.395833,26.0117,-95.1217,0300,10.26,-3.75,10.9238,110.0772
1985-06-16 22:00:00 UTC,2446233.416667,26.0117,-95.1217,0300,10.67,-4.27,11.4927,111.8107
1985-06-16 22:30:00 UTC,2446233.437500,26.0117,-95.1217,0300,10.70,-4.66,11.6707,113.5338
1985-06-16 23:00:00 UTC,2446233.458333,26.0117,-95.1217,0300,11.15,-3.76,11.7669,108.6351
1985-06-16 23:30:00 UTC,2446233.479167,26.0117,-95.1217,0300,11.01,-2.91,11.3881,104.8050
1985-06-17 00:00:00 UTC,2446233.500000,26.0117,-95.1217,0300,10.90,-5.56,12.2362,117.0257
1985-06-17 00:30:00 UTC,2446233.520833,26.0117,-95.1217,0300,10.92,-4.14,11.6784,110.7628
1985-06-17 01:00:00 UTC,2446233.541667,26.0117,-95.1217,0300,9.33,-6.21,11.2077,123.6475
1985-06-17 01:30:00 UTC,2446233.562500,26.0117,-95.1217,0300,8.69,-6.93,11.1149,128.5712
1985-06-17 02:00:00 UTC,2446233.583333,26.0117,-95.1217,0300,8.01,-8.36,11.5780,136.2248
1985-06-17 02:30:00 UTC,2446233.604167,26.0117,-95.1217,0300,6.99,-9.00,11.3956,142.1647
1985-06-17 03:00:00 UTC,2446233.625000,26.0117,-95.1217,0300,7.39,-9.28,11.8630,141.4684
1985-06-17 03:30:00 UTC,2446233.645833,26.0117,-95.1217,0300,6.66,-9.25,11.3982,144.2461
1985-06-17 04:00:00 UTC,2446233.666667,26.0117,-95.1217,0300,7.82,-8.67,11.6757,137.9508
1985-06-17 04:30:00 UTC,2446233.687500,26.0117,-95.1217,0300,5.58,-10.47,11.8641,151.9445
1985-06-17 05:00:00 UTC,2446233.708333,26.0117,-95.1217,0300,2.86,-10.83,11.2013,165.2070
1985-06-17 05:30:00 UTC,2446233.729167,26.0117,-95.1217,0300,-1.05,-10.41,10.4628,185.7596
1985-06-17 06:00:00 UTC,2446233.750000,26.0117,-95.1217,0300,-5.06,-9.90,11.1182,207.0721
1985-06-17 06:30:00 UTC,2446233.770833,26.0117,-95.1217,0300,-7.57,-9.25,11.9527,219.2962
1985-06-17 07:00:00 UTC,2446233.791667,26.0117,-95.1217,0300,-6.92,-9.97,12.1362,214.7638
1985-06-17 07:30:00 UTC,2446233.812500,26.0117,-95.1217,0300,-8.40,-8.24,11.7668,225.5509
1985-06-17 08:00:00 UTC,2446233.833333,26.0117,-95.1217,0300,-10.78,-6.17,12.4208,240.2151
1985-06-17 08:30:00 UTC,2446233.854167,26.0117,-95.1217,0300,-10.95,-6.44,12.7034,239.5390
1985-06-17 09:00:00 UTC,2446233.875000,26.0117,-95.1217,0300,-12.33,-2.61,12.6032,258.0481
1985-06-17 09:30:00 UTC,2446233.895833,26.0117,-95.1217,0300,-11.74,-2.71,12.0487,257.0018
1985-06-17 10:00:00 UTC,2446233.916667,26.0117,-95.1217,0300,-11.45,-3.09,11.8596,254.8974